Powrót do katalogu

FENGYUN 1C DEB

AktywnyPO
NORAD 30239·DEBRIS·🇨🇳 China

Wystrzelony May 10, 1999 z Taiyuan Satellite Launch Center

Loading…

Następne Przeloty (najbliższe 24 godziny)

TLE

ŚwieżeSource: Space-Track

Epoka: Sep 13, 2026, 22:07 UTC

1 30239U 99025WY  26256.92187115  .00016621  00000-0  38496-1 0  9994
2 30239  99.5210 319.7942 1391060 266.3913  77.7504 11.42594562576748

Śledź FENGYUN 1C DEB w czasie rzeczywistym z AllMySat

Download on the App Store